Tracking 31030 objects as of 17-Jul-2025
HD Live streaming from Space Station
objects crossing your sky now

DELTA 1 DEB

Track DELTA 1 DEB now!
10-day predictions


NORAD ID: 7085
Int'l Code: 1973-086CD
Perigee: 1,351.8 km
Apogee: 1,506.8 km
Inclination: 102.1 °
Period: 114.3 minutes
Semi major axis: 7800 km
RCS: 0.072 m2 (small)
Launch date: November 6, 1973
Source: United States (US)
Launch site: AIR FORCE WESTERN TEST RANGE (AFWTR)

Note: This is SATELLITE DEBRIS
Your satellite tracking list
Your tracking list is empty




NASA's NSSDC Master Catalog

Two Line Element Set (TLE):
1 07085U 73086CD  25197.94117638  .00000015  00000-0  35062-3 0  9992
2 07085 102.1289 340.1186 0099361 135.3580 355.3459 12.60198580373907
Source of the keplerian elements: AFSPC